This is the latest recevied weather packets stored in our database for station/object SR9WXP. If no packets are shown the sender has not sent any weather packets the latest 1 day(s).
| Time | Temp. | Humidity | Pressure | Rain* | Wind** | Luminosity | Snow |
|---|---|---|---|---|---|---|---|
| 1777966445 | 13.33° C | 51% | 853 hPa | - | 4.47 m/s, 173° | - | - |
| 1777966321 | 13.33° C | 51% | 853 hPa | - | 3.58 m/s, 176° | - | - |
| 1777966201 | 13.33° C | 51% | 853 hPa | - | 3.58 m/s, 180° | - | - |
| 1777966081 | 13.33° C | 51% | 853 hPa | - | 4.02 m/s, 169° | - | - |
| 1777966021 | 13.33° C | 51% | 853 hPa | - | 4.02 m/s, 165° | - | - |
| 1777965842 | 13.33° C | 51% | 852.9 hPa | - | 3.58 m/s, 175° | - | - |
| 1777965705 | 13.33° C | 51% | 852.8 hPa | - | 4.02 m/s, 174° | - | - |
| 1777965466 | 13.33° C | 51% | 852.8 hPa | - | 3.58 m/s, 182° | - | - |
| 1777965405 | 13.33° C | 51% | 852.8 hPa | - | 3.58 m/s, 185° | - | - |
| 1777965347 | 13.33° C | 51% | 852.8 hPa | - | 3.58 m/s, 176° | - | - |
| 1777965102 | 12.78° C | 52% | 852.8 hPa | - | 3.58 m/s, 174° | - | - |
| 1777964863 | 12.78° C | 52% | 852.7 hPa | - | 4.02 m/s, 173° | - | - |
| 1777964802 | 12.22° C | 52% | 852.7 hPa | - | 4.47 m/s, 174° | - | - |
| 1777964743 | 12.22° C | 52% | 852.8 hPa | - | 3.58 m/s, 172° | - | - |
| 1777964623 | 12.22° C | 52% | 852.8 hPa | - | 3.58 m/s, 170° | - | - |
| 1777964499 | 11.67° C | 52% | 852.9 hPa | - | 3.13 m/s, 173° | - | - |
| 1777964381 | 11.67° C | 52% | 852.9 hPa | - | 3.13 m/s, 171° | - | - |
| 1777964261 | 11.11° C | 53% | 853 hPa | - | 3.58 m/s, 180° | - | - |
| 1777964199 | 11.11° C | 53% | 853 hPa | - | 4.02 m/s, 177° | - | - |
| 1777964140 | 11.11° C | 53% | 853 hPa | - | 4.02 m/s, 175° | - | - |
| 1777964020 | 10.56° C | 53% | 853.1 hPa | - | 4.02 m/s, 175° | - | - |
| 1777963896 | 10.56° C | 53% | 853.2 hPa | - | 4.02 m/s, 182° | - | - |
| 1777963778 | 10.56° C | 53% | 853.1 hPa | - | 4.47 m/s, 174° | - | - |
| 1777963596 | 11.11° C | 53% | 853.1 hPa | - | 4.02 m/s, 174° | - | - |
| 1777963536 | 11.11° C | 52% | 853 hPa | - | 4.02 m/s, 176° | - | - |
* Rain since midnight (hover to see other rain measurements)
** Current wind speed in m/s (hover to see current wind gust speed)